Terminal Aerodrome Forecast
Issued by NWS

Home | Current Version | Previous Version | Text Only | Print | Product List | Glossary On
Versions: 1 2 3 4 5 6 7 8 9 10 11 12 13 14
000
FTUS41 KCAR 290250 AAA
TAFHUL
TAF AMD
KHUL 290250Z 2903/2924 18010KT P6SM OVC060
     FM290400 19009KT 6SM -SHRA OVC040
      TEMPO 2904/2907 OVC007
     FM290700 20010KT P6SM OVC006
     FM291400 26009KT P6SM BKN012
     FM291700 29010G18KT P6SM BKN035
     FM292200 33011KT P6SM SCT050=

USA.gov is the U.S. government's official web portal to all federal, state and local government web resources and services.